Regional Weather Roundup
Issued by NWS Wakefield, VA

Home | Current Version | Previous Version | Graphics & Text | Print | Product List | Glossary On
Versions: 1 2 3 4 5 6 7 8 9 10 11 12 13 14 15 16 17 18 19 20 21 22 23 24 25 26 27 28 29 30 31 32 33 34 35 36 37 38 39 40 41 42 43 44 45 46 47 48 49 50
000
ASUS41 KAKQ 060510
RWRAKQ

REGIONAL WEATHER ROUNDUP
NATIONAL WEATHER SERVICE WAKEFIELD VA
1200 AM EST FRI MAR 06 2015

Note: "fair" indicates few or no clouds below 12,000 feet with no
significant weather and/or obstructions to visibility. * = Denotes
station may not report precipitation (e.g., rain,snow,etc.),
thunder or fog.

VAZ042-051-052>054-056-060600-
NORTHERN VIRGINIA

CITY           SKY/WX    TMP DP  RH WIND       PRES   REMARKS
WASH NATIONAL  PTCLDY    23   9  55 N14       30.46S WCI  11
DULLES         CLEAR     19   6  57 NW17      30.45S WCI   4
FORT BELVOIR   CLEAR     21   9  57 NW10      30.46R WCI  10
QUANTICO       PTCLDY    22  12  65 N9        30.48R
FREDERICKSBRG* PTCLDY    23  13  66 N9        30.45S
STAFFORD*      CLEAR     19   9  64 CALM      30.49S
WARRENTON      PTCLDY    20  12  70 N8        30.45S
CULPEPER*      CLEAR     21   9  58 N17G23    30.45R WCI   7
MANASSAS*      CLEAR     18  10  73 NW8       30.46S
LEESBURG*      CLEAR     19   9  63 NW12      30.47S WCI   7
WINCHESTER     CLEAR     18   3  53 CALM      30.46R
FRONT ROYAL*   FAIR      18   5  57 CALM      30.45R
LURAY*         FAIR      19   9  63 N7        30.42F
$$

VAZ048-049-060>072-079>083-060600-
CENTRAL AND SOUTH CENTRAL VIRGINIA

CITY           SKY/WX    TMP DP  RH WIND       PRES   REMARKS
RICHMOND       CLOUDY    26  15  63 N14G23    30.42R WCI  14
CHESTERFIELD*  CLOUDY    25  10  54 N9        30.43R
PETERSBURG*    CLOUDY    28  23  83 N8        30.42R
HANOVER        MOCLDY    23  13  65 VRB7      30.45R
TAPPAHANNOCK*  CLOUDY    26  18  72 NW12      30.43R WCI  15
QUINTON*       CLOUDY    25  19  78 N9G16     30.42R
CHARLOTTSVILLE CLEAR     21  12  68 N7        30.40S
GORDONSVILLE*  FAIR      18  15  88 CALM      30.41S
ORANGE*        CLEAR     21  14  73 NW6       30.44R
LOUISA*        PTCLDY    21  16  79 N3        30.40S
BUMPASS*       FAIR      22  13  69 N6        30.42R
FARMVILLE*     MOCLDY    28  27  98 NE7         N/A
CREWE*         MOCLDY    26  22  86 N3        30.40R
FORT PICKETT*  CLOUDY    26  23  91 N8        30.39S
CHASE CITY*    CLOUDY    30  28  92 N6        30.38S
CLARKSVILLE*   CLOUDY    30  25  80 N6        30.37S
SOUTH HILL*    CLOUDY    27  23  84 N7G16     30.44R
LAWRENCEVILLE* CLOUDY    27  22  82 N8        30.38R
EMPORIA*       CLOUDY    28  23  80 NW16G22   30.41R WCI  17
$$

VAZ088>098-060600-
SOUTHEAST VIRGINIA

CITY           SKY/WX    TMP DP  RH WIND       PRES   REMARKS
NORFOLK        CLOUDY    28  22  78 N23G32    30.36R WCI  14
VIRGINIA BEACH CLOUDY    29  24  82 N23G32    30.36R WCI  15
NORFOLK NAVAL  CLOUDY    30  23  75 N18G28    30.39R WCI  18
WEST POINT*    CLOUDY    28  18  66 N12G20    30.44R WCI  18
SALUDA*        CLOUDY    26  20  80 N15G23    30.40R WCI  13
NEWPORT NEWS   MIX PCPN  30  24  78 N13       30.39R WCI  20
LANGLEY AFB    CLOUDY    28  23  80 N12G23    30.38R WCI  18
FORT EUSTIS    DRIZZLE   28  28  99 N10       30.37R WCI  19
WILLIAMSBURG*    N/A    N/A N/A N/A MISG      30.39R
HR EXEC AP*      N/A    N/A N/A N/A MISG        N/A
FRANKLIN*      CLOUDY    28  23  82 N12G21    30.39R WCI  18
WAKEFIELD      CLOUDY    28  21  75 N9G23     30.40R
$$

VAZ020-022-025-037-045-060600-
WEST CENTRAL AND SOUTHWEST VIRGINIA

CITY           SKY/WX    TMP DP  RH WIND       PRES   REMARKS
STAUNTON*      PTCLDY    17  11  79 NE6       30.40S
WAYNESBORO*    FAIR      17  12  82 N6        30.36S
HOT SPRINGS VA LGT SNOW   8   7  95 CALM      30.15S
LYNCHBURG      PTCLDY    26  20  77 VRB5      30.38R
DANVILLE       CLOUDY    31  25  78 NE8       30.37S
SOUTH BOSTON*  CLOUDY    29  25  84 NE3       30.39S
MARTINSVILLE   PTCLDY    27  19  71 NW13      30.40R WCI  16
ROANOKE        PTCLDY    21  11  65 NW7       30.40S
BLACKSBURG     FLURRIES  16  11  79 W5        30.36R
DUBLIN*        FLURRIES  18  14  84 CALM      30.36R
MARION*        FLURRIES  19  12  77 W7        30.33S
HILLSVILLE*    CLOUDY    18  14  84 N9G16     30.27R
RICHLANDS*     LGT SNOW  15  10  83 N5        30.32F
WISE*          LGT SNOW  14  14 100 N5        30.35S
ABINGDON*      FLURRIES  20  15  82 N6        30.36S
$$

MDZ021>025-VAZ099-100-060600-
SOUTHERN MARYLAND AND THE DELMARVA PENINSULA

CITY           SKY/WX    TMP DP  RH WIND       PRES   REMARKS
PATUXENT RIVER CLOUDY    23  14  68 N16       30.42R WCI  10
BAY BRIDGE APT   N/A     23  14  68 NW9       30.43S
LEONARDTOWN    MOCLDY    23  18  80 CALM      30.44R
DOVER          CLOUDY    21  12  68 NW12      30.40S WCI   9
GEORGETOWN     CLOUDY    22  12  65 N8        30.40R
EASTON         MOCLDY    24  18  76 N10       30.45S WCI  14
CAMBRIDGE      CLOUDY    27  18  69 N12G20    30.41S WCI  16
SALISBURY      CLOUDY    25  14  63 N12       30.39R WCI  14
OCEAN CITY     CLOUDY    22  14  71 N16G22    30.37S WCI   8
WALLOPS ISLAND CLOUDY    23  15  71 N14G20    30.37R WCI  11
ACCOMACK*      CLOUDY    27  18  69 N21G28    30.38R WCI  13
$$

NCZ012>017-030>032-060600-
NORTH CENTRAL AND EASTERN NORTH CAROLINA

CITY           SKY/WX    TMP DP  RH WIND       PRES   REMARKS
ROANOKE RAPIDS CLOUDY    30  27  86 N10G21    30.37S WCI  21
RALEIGH        CLOUDY    32  25  75 NE9       30.36R
ELIZABETH CITY CLOUDY    30  26  85 N22G30    30.33R WCI  17
AHOSKIE*       CLOUDY    29  25  84 N15       30.37R WCI  17
EDENTON*       CLOUDY    32  29  90 N15G21    30.33S WCI  21
CURRITUCK*     CLOUDY    30  26  86 N16G22    30.34S WCI  18
KILL DEVIL HLS CLOUDY    30  30 100 N14G31    30.29R WCI  19
MANTEO         CLOUDY    30  28  91 N20G28    30.31R WCI  17
CAPE HATTERAS  LGT RAIN  34  33  96 N16G30    30.26R WCI  24
TARBORO*       CLOUDY    32  28  84 N10G20    30.37R WCI  23
GOLDSBORO      CLOUDY    33  32  98 N14G21    30.33R WCI  23
WASHINGTON     CLOUDY    32  29  88 N13       30.33S WCI  22
GREENVILLE     CLOUDY    32  30  93 N9        30.34S
NEW BERN       CLOUDY    35  31  85 N14       30.33R
WILMINGTON     LGT RAIN  36  33  89 N21G29    30.27R WCI  25
$$

VAZ048-060600-
ELSEWHERE

CITY           SKY/WX    TMP DP  RH WIND       PRES   REMARKS
HARRISBURG PA  CLEAR     18   1  47 NW13      30.44R WCI   5
BALTIMORE      PTCLDY    19  10  68 NW5       30.43S
ANNAPOLIS      PTCLDY    24  12  60 N12       30.44R WCI  13
ANDREWS AFB    CLEAR     20  10  63 NW10      30.42S WCI   9
PHILADELPHIA   CLOUDY    20   8  60 N10       30.43R WCI   9
HENDERSON NC   CLOUDY    29  24  79 CALM      30.37R
GREENSBORO     CLOUDY    30  23  75 N9        30.34R
ROCKY MOUNT    CLOUDY    32  27  81 N12       30.36R WCI  23
$$

VAZ100-060600-
MARINE

STATION/POSITION TIME  TEMP    WIND        PRES    WAVE   SWELL
                       AIR SEA DIR/SP/G            HT/PER HT/PER
                 (UTC) (F)     (DEG/KT/KT) (MB)    (FT/S) (FT/S)
BRANDYWINE LGT   0500   24 31  360/ 25/ 29 1028.7R
CAPE MAY NJ      0500   22 33  340/ 15/ 27 1028.4F
LEWES DE         0500   26 31  350/ 20/ 24 1029.0S
15NM E FENWICK I 0500   25 35              1027.5R   7/ 5
OCEAN-CITY-INLET 0500   24 32  360/ 14/ 19 1028.0F
WACHAPREAGUE VA  0500   24 38  340/  6/ 19 1028.1R
THOMAS POINT MD  0500          130/ 13/ 16   N/A
COVE POINT MD    0500   23     360/ 20/ 25 1029.7F
SOLOMONS ISLAND  0500      33                N/A
BISHOPS HEAD MD  0500   24 31  340/ 13/ 16 1029.0S
CAMBRIDGE MD     0500   25 32  340/ 14/ 19 1029.8R
LEWISETTA VA     0500          350/ 10/ 14 1030.1R
RAPPAHANNOCK LGT 0500          350/ 29/ 32 1028.9R
STINGRAY PT      0500   27 33  360/ 21/ 25   N/A     3/ 3
YORK RVR RNG VA  0500   27      10/ 21/ 25 1027.9R
YORKTOWN VA      0500   28 35  360/ 17/ 19 1028.8R
DOMINION TERM VA 0500   29      10/ 11/ 18 1028.3R
KIPTOPEKE VA     0500      39   10/ 17/ 23   N/A
CHES BAY BRIDGE  0500   27 34  350/ 30/ 33 1027.6S
CAPE HENRY VA    0500   27     340/ 32/ 36 1026.3S
CHESAPEAKE LGHT  0400   28     360/ 28/ 29 1026.4F
WILLOUBY STN VA  0500          360/ 23/ 28 1028.6R
S CRANEY ISL VA  0500          360/ 20/ 25 1028.0R
CAPE HENRY BUOY  0500      35                N/A     7/ 8
1ST LANDING BUOY 0500   28 34  350/ 27/ 35 1027.3S   5/ 4
OFFSHORE WE BUOY 0500      36                N/A     9/ 8   3/22
64NM E OF VA BCH 0500   35 53  350/ 31/ 35 1024.2R  12/ 8
DUCK PIER NC     0500   29 36  360/ 29/ 34 1024.3F
44100 DUCK FRF   0400      38                N/A    10/ 7   2/11
44056 DUCK FRF   0500      35                N/A     9/ 8   2/11
OREGON INLET NC  0500   31 44  350/ 23/ 31 1024.8F
HATTERAS NC      0500      49  350/ 31/ 36 1024.4S
CAPE LOOKOUT NC  0400          350/ 24/ 30 1023.5R
$$



USA.gov is the U.S. government's official web portal to all federal, state and local government web resources and services.